Regional Weather Roundup
Issued by NWS Sioux Falls, SD

Home | Current Version | Previous Version | Text Only | Print | Product List | Glossary On
Versions: 1 2 3 4 5 6 7 8 9 10 11 12 13 14 15 16 17 18 19 20 21 22 23 24 25 26 27 28 29 30 31 32 33 34 35 36 37 38 39 40 41 42 43 44 45 46 47 48 49 50
000
ASUS43 KFSD 290002
RWRFSD

WEATHER ROUNDUP FOR SE SOUTH DAKOTA/SW MINNESOTA/NW IOWA
NATIONAL WEATHER SERVICE SIOUX FALLS SD
700 PM CDT FRI APR 28 2017

NOTE: "FAIR" INDICATES FEW OR NO CLOUDS BELOW 12,000 FEET WITH NO
SIGNIFICANT WEATHER AND OR OBSTRUCTIONS TO VISIBILITY.


SDZ038>040-050-052>070-290100-
SOUTHEAST SOUTH DAKOTA

CITY           SKY/WX    TMP DP  RH WIND       PRES   REMARKS
BROOKINGS      PTSUNNY   46  26  45 N12       30.02R
CHAMBERLAIN    SUNNY     53  24  32 N12G23    30.00R
6HR MIN TEMP:  48; 6HR MAX TEMP:  55;

HURON          MOSUNNY   52  20  28 NE16G25   30.03R
6HR MIN TEMP:  49; 6HR MAX TEMP:  56;

MADISON        FAIR      48  25  40 NE20      30.00S
MITCHELL       MOSUNNY   53  27  36 NE17      30.00S
6HR MIN TEMP:  48; 6HR MAX TEMP:  53;

SIOUX FALLS    CLOUDY    49  32  52 NE17      29.99R
6HR MIN TEMP:  44; 6HR MAX TEMP:  49;

WINNER         FAIR      52  26  36 E20       30.01R
YANKTON        CLOUDY    48  30  49 NE12      29.98R
$$

MNZ071-072-080-081-089-090-097-098-290100-
SOUTHWEST MINNESOTA

CITY           SKY/WX    TMP DP  RH WIND       PRES   REMARKS
FAIRMONT       CLOUDY    46  32  58 N12       29.98S
JACKSON        CLOUDY    45  32  61 NE13      29.98S
MARSHALL       MOSUNNY   50  22  33 N16G22    30.02R
6HR MIN TEMP:  44; 6HR MAX TEMP:  53;

MONTEVIDEO     MOSUNNY   50  19  29 NE20      30.02R
PIPESTONE      CLOUDY    48  21  34 NE12G17   29.99R
REDWOOD FALLS  MOSUNNY   52  23  32 N10       30.00R
TRACY          PTSUNNY   51  29  43 N17       30.00S
WINDOM         MOSUNNY   48  34  57 N10       29.99R
WORTHINGTON    CLOUDY    47  31  53 NE17G23   29.99R
$$

IAZ001>003-012>014-020>022-031-032-NEZ013-014-SDZ071-290100-
NORTHWEST IOWA

CITY           SKY/WX    TMP DP  RH WIND       PRES   REMARKS
CHEROKEE       CLOUDY    46  35  67 NE7       29.98R
DENISON        CLOUDY    43  37  81 NE12      29.96R
ESTHERVILLE    CLOUDY    44  33  65 N13       29.98R
LE MARS        CLOUDY    46  30  53 NE13G20   29.99R
ORANGE CITY    CLOUDY    46  30  53 NE9       29.98R
SHELDON        CLOUDY    46  32  57 NE18      29.95R
SIOUX CITY     CLOUDY    47  35  63 NE12      29.98R
6HR MIN TEMP:  42; 6HR MAX TEMP:  47; 6HR PCP:  0.03;

SPENCER        CLOUDY    47  32  56 NE13      29.98R
6HR MIN TEMP:  43; 6HR MAX TEMP:  48;

STORM LAKE     CLOUDY    45  34  65 NE17      29.96R
$$

ABBREVIATIONS USED IN REMARKS
   TC - TEMPERATURE IN CELSIUS
  WCI - WIND CHILL INDEX
   HX - HEAT INDEX
  VSB - VISIBILITY




USA.gov is the U.S. government's official web portal to all federal, state and local government web resources and services.